Okmulgee, OK

12:37 AM CDT on May 23, 2017 (GMT -0500)
Okmulgee Regional

Weather History for KOKM - July, 2013

Change the Weather History Date:

Thursday, July 4, 2013

  Actual Average (KMKO) Record (KMKO)
Temperature  
Mean Temperature 73 °F -  
Max Temperature 89 °F 87 °F 100 °F (2012)
Min Temperature 57 °F 68 °F 61 °F (2013)
Cooling Degree Days 8    
Growing Degree Days 23 (Base 50)    
Moisture  
Dew Point 60 °F    
Average Humidity 65    
Maximum Humidity 94    
Minimum Humidity 36    
Precipitation  
Precipitation 0.00 in - - ()
Sea Level Pressure  
Sea Level Pressure 30.00 in    
Wind  
Wind Speed 4 mph (SSE)    
Max Wind Speed 14 mph    
Max Gust Speed 21 mph    
Visibility 10 miles    
Events      
Averages and records for this station are not official NWS values.
T = Trace of Precipitation, MM = Missing Value Source: NWS Daily Summary

Daily Weather History Graph

Daily Weather History Graph

Search for Another Location

Airport or City:

Trip Planner

Search our weather history database for the weather conditions in past years. The results will help you decide how hot, cold, wet, or windy it might be!

Date:

Astronomy

Jul. 04, 2013 Rise Set
Actual Time 6:13 AM CDT 8:43 PM CDT
Civil Twilight 5:43 AM CDT 9:13 PM CDT
Nautical Twilight 5:06 AM CDT 9:49 PM CDT
Astronomical Twilight 4:25 AM CDT 10:30 PM CDT
Moon 3:27 AM CDT (7/4) 5:50 PM CDT (7/4)
Length of Visible Light 15h 29m
Length of Day
14h 30m
Waning Crescent, 11% of the Moon is Illuminated
Jul 4
Waning Crescent
Jul 8
New
Jul 15
First Quarter
Jul 22
Full
Jul 29
Last Quarter

Hourly Weather History & Observations

Time (CDT) Temp. Heat Index Dew Point Humidity Pressure Visibility Wind Dir Wind Speed Gust Speed Precip Events Conditions
12:15 AM 63.9 °F - 57.7 °F 80% 30.01 in 10.0 mi Calm Calm - N/A   Clear
12:35 AM 61.7 °F - 57.9 °F 87% 30.02 in 10.0 mi Calm Calm - N/A   Clear
12:55 AM 62.8 °F - 57.4 °F 82% 30.02 in 10.0 mi Calm Calm - N/A   Clear
1:15 AM 62.2 °F - 57.2 °F 84% 30.01 in 10.0 mi NE 3.5 mph - N/A   Clear
1:35 AM 61.2 °F - 56.7 °F 85% 30.01 in 10.0 mi NE 3.5 mph - N/A   Clear
1:55 AM 61.7 °F - 56.7 °F 84% 30.01 in 10.0 mi Calm Calm - N/A   Clear
2:15 AM 61.2 °F - 56.5 °F 85% 30.01 in 10.0 mi NNE 3.5 mph - N/A   Clear
2:35 AM 61.3 °F - 56.7 °F 85% 30.01 in 10.0 mi NNE 3.5 mph - N/A   Clear
2:55 AM 61.2 °F - 56.3 °F 84% 30.01 in 10.0 mi NE 3.5 mph - N/A   Clear
3:15 AM 61.0 °F - 56.3 °F 85% 30.01 in 10.0 mi East 3.5 mph - N/A   Clear
3:35 AM 59.5 °F - 56.1 °F 88% 30.01 in 10.0 mi Calm Calm - N/A   Clear
3:55 AM 58.8 °F - 55.9 °F 90% 30.00 in 10.0 mi Calm Calm - N/A   Clear
4:15 AM 58.1 °F - 55.8 °F 92% 30.01 in 10.0 mi Calm Calm - N/A   Clear
4:35 AM 58.5 °F - 56.7 °F 94% 30.00 in 10.0 mi Calm Calm - N/A   Clear
4:55 AM 58.3 °F - 56.1 °F 93% 30.01 in 10.0 mi Calm Calm - N/A   Clear
5:15 AM 59.4 °F - 56.5 °F 90% 30.01 in 10.0 mi Calm Calm - N/A   Clear
5:35 AM 59.0 °F - 56.3 °F 91% 30.01 in 10.0 mi North - - N/A   Clear
5:55 AM 57.4 °F - 55.4 °F 93% 30.02 in 10.0 mi Calm Calm - N/A   Clear
6:15 AM 57.4 °F - 55.6 °F 94% 30.02 in 10.0 mi Calm Calm - N/A   Clear
6:35 AM 58.6 °F - 56.5 °F 93% 30.02 in 10.0 mi North - - N/A   Clear
6:55 AM 59.2 °F - 57.4 °F 94% 30.03 in 10.0 mi North - - N/A   Clear
7:15 AM 61.7 °F - 58.5 °F 89% 30.03 in 10.0 mi NNE 8.1 mph - N/A   Clear
7:35 AM 64.2 °F - 59.2 °F 84% 30.04 in 10.0 mi North - - N/A   Clear
7:55 AM 66.6 °F - 59.0 °F 77% 30.04 in 10.0 mi North - - N/A   Clear
8:15 AM 68.0 °F - 60.3 °F 76% 30.04 in 10.0 mi Calm Calm - N/A   Clear
8:35 AM 71.1 °F - 60.6 °F 69% 30.04 in 10.0 mi SSE 4.6 mph - N/A   Clear
8:55 AM 72.9 °F - 60.8 °F 66% 30.04 in 10.0 mi North - - N/A   Clear
9:15 AM 75.0 °F - 60.8 °F 61% 30.05 in 10.0 mi SSW 5.8 mph 18.4 mph N/A   Clear
9:35 AM 76.1 °F - 60.8 °F 59% 30.05 in 10.0 mi South 10.4 mph 19.6 mph N/A   Clear
9:55 AM 77.5 °F - 61.3 °F 57% 30.05 in 10.0 mi SSE 6.9 mph - N/A   Clear
10:15 AM 79.2 °F - 61.7 °F 55% 30.04 in 10.0 mi SSE 8.1 mph - N/A   Clear
10:35 AM 80.8 °F 81.8 °F 61.7 °F 52% 30.04 in 10.0 mi South 5.8 mph 17.3 mph N/A   Clear
10:55 AM 81.5 °F 82.4 °F 61.5 °F 51% 30.04 in 10.0 mi South 13.8 mph 20.7 mph N/A   Clear
11:15 AM 82.0 °F 82.8 °F 61.5 °F 50% 30.04 in 10.0 mi SSW 10.4 mph 19.6 mph N/A   Clear
11:35 AM 82.9 °F 83.7 °F 62.2 °F 49% 30.04 in 10.0 mi SSW 8.1 mph 17.3 mph N/A   Clear
11:55 AM 83.7 °F 84.3 °F 62.1 °F 48% 30.03 in 10.0 mi South 10.4 mph 16.1 mph N/A   Clear
12:15 PM 83.5 °F 84.3 °F 62.4 °F 49% 30.03 in 10.0 mi SW 8.1 mph - N/A   Clear
12:35 PM 84.9 °F 85.6 °F 62.4 °F 47% 30.02 in 10.0 mi SW 5.8 mph - N/A   Clear
12:55 PM 85.3 °F 85.9 °F 62.1 °F 46% 30.01 in 10.0 mi South 10.4 mph - N/A   Clear
1:15 PM 85.3 °F 85.9 °F 62.1 °F 46% 30.01 in 10.0 mi SSW 9.2 mph - N/A   Scattered Clouds
1:35 PM 86.9 °F 87.2 °F 61.9 °F 43% 30.01 in 10.0 mi SW 4.6 mph - N/A   Scattered Clouds
1:55 PM 85.8 °F 85.9 °F 61.0 °F 43% 30.00 in 10.0 mi WSW 4.6 mph - N/A   Scattered Clouds
2:15 PM 86.7 °F 86.8 °F 61.0 °F 42% 29.99 in 10.0 mi West 6.9 mph - N/A   Mostly Cloudy
2:35 PM 86.2 °F 85.9 °F 60.3 °F 41% 29.99 in 10.0 mi SW 8.1 mph - N/A   Scattered Clouds
2:55 PM 89.1 °F 88.2 °F 58.8 °F 36% 29.98 in 10.0 mi SW 5.8 mph - N/A   Scattered Clouds
3:15 PM 88.5 °F 87.8 °F 59.0 °F 37% 29.97 in 10.0 mi South 10.4 mph - N/A   Clear
3:35 PM 88.7 °F 87.8 °F 58.8 °F 36% 29.97 in 10.0 mi North - - N/A   Clear
3:55 PM 88.2 °F 88.1 °F 61.3 °F 40% 29.96 in 10.0 mi East 9.2 mph - N/A   Scattered Clouds
4:15 PM 85.1 °F 85.2 °F 61.2 °F 44% 29.97 in 10.0 mi SE 13.8 mph 18.4 mph N/A   Mostly Cloudy
4:35 PM 84.9 °F 85.0 °F 60.8 °F 44% 29.96 in 10.0 mi SE 10.4 mph - N/A   Scattered Clouds
4:55 PM 87.6 °F 87.2 °F 60.1 °F 39% 29.96 in 10.0 mi ESE 10.4 mph - N/A   Clear
5:15 PM 87.6 °F 86.5 °F 57.9 °F 36% 29.95 in 10.0 mi SE 11.5 mph - N/A   Clear
5:35 PM 86.7 °F 86.5 °F 60.4 °F 41% 29.95 in 10.0 mi SE 12.7 mph - N/A   Clear
5:55 PM 85.8 °F 86.1 °F 61.3 °F 44% 29.95 in 10.0 mi North - - N/A   Clear
6:15 PM 85.5 °F 85.9 °F 61.7 °F 45% 29.94 in 10.0 mi North - - N/A   Clear
6:35 PM 84.6 °F 84.4 °F 60.1 °F 43% 29.95 in 10.0 mi SE 11.5 mph - N/A   Clear
6:55 PM 84.2 °F 84.4 °F 60.4 °F 45% 29.95 in 10.0 mi North - - N/A   Clear
7:15 PM 83.8 °F 84.3 °F 61.5 °F 47% 29.95 in 10.0 mi North - - N/A   Clear
7:35 PM 82.9 °F 83.0 °F 59.4 °F 45% 29.95 in 10.0 mi SE 11.5 mph 19.6 mph N/A   Clear
7:55 PM 82.0 °F 82.5 °F 60.8 °F 48% 29.95 in 10.0 mi SE 6.9 mph - N/A   Clear
8:15 PM 80.6 °F 81.6 °F 61.3 °F 52% 29.95 in 10.0 mi SE 9.2 mph - N/A   Clear
8:35 PM 79.2 °F - 61.9 °F 55% 29.95 in 10.0 mi SE 6.9 mph - N/A   Clear
8:55 PM 77.2 °F - 62.6 °F 61% 29.96 in 10.0 mi SSE 3.5 mph - N/A   Clear
9:15 PM 75.6 °F - 62.6 °F 64% 29.96 in 10.0 mi SE 3.5 mph - N/A   Clear
9:35 PM 73.2 °F - 62.8 °F 70% 29.97 in 10.0 mi North - - N/A   Clear
9:55 PM 73.8 °F - 62.6 °F 68% 29.97 in 10.0 mi North - - N/A   Clear
10:15 PM 72.0 °F - 62.6 °F 72% 29.98 in 10.0 mi East 3.5 mph - N/A   Clear
10:35 PM 68.4 °F - 62.2 °F 81% 29.98 in 10.0 mi Calm Calm - N/A   Clear
10:55 PM 69.3 °F - 62.6 °F 79% 29.98 in 10.0 mi Calm Calm - N/A   Clear
11:15 PM 67.1 °F - 62.6 °F 85% 29.98 in 10.0 mi Calm Calm - N/A   Clear
11:35 PM 67.3 °F - 62.2 °F 84% 29.98 in 10.0 mi Calm Calm - N/A   Clear
11:55 PM 68.9 °F - 62.6 °F 80% 29.98 in 10.0 mi Calm Calm - N/A   Clear